Hourly Data Report for September 07, 2017

All times are specified in Local Standard Time (LST). Add 1 hour to adjust for Daylight Saving Time where and when it is observed.

ALERT CLIMATE
NUNAVUT

82°30'00.000" N
62°20'00.000" W
65.40 m
2400305
71355
ZLT

Download Data

Hourly Data (September 2017)
Hourly Data Report for September 7, 2017
Temp Definition
°C
Dew Point Temp Definition
°C
Rel Hum Definition
%
Wind Dir Definition
10's deg

Wind Spd Definition
km/h
Visibility Definition
km
Stn Press Definition
kPa
Hmdx Definition


Wind Chill Definition


Weather Definition


TIME
00:00 -10.1 -11.1 92 11 5   100.41   -13 LegendNANA
01:00 -9.8 -10.9 91   0   100.42     LegendNANA
02:00 -9.7 -10.8 92 14 3   100.42   -11 LegendNANA
03:00 -9.3 -10.4 92 15 1   100.44   -10 LegendNANA
04:00 -8.5 -9.9 90 20 2   100.46   -10 LegendNANA
05:00 -8.1 -10.0 87 27 3   100.46   -10 LegendNANA
06:00 -7.8 -10.0 84 33 6   100.46   -11 LegendNANA
07:00 -7.7 -10.3 82 20 2   100.48   -9 LegendNANA
08:00 -7.3 -10.4 79 11 4   100.49   -9 LegendNANA
09:00 -7.1 -9.8 82 9 7   100.49   -11 LegendNANA
10:00 -6.6 -8.9 83 9 7   100.49   -10 LegendNANA
11:00 -6.1 -8.2 85 7 6   100.51   -9 LegendNANA
12:00 -5.9 -7.5 88 5 4   100.52   -8 LegendNANA
13:00 -5.4 -7.3 86 10 2   100.54   -6 LegendNANA
14:00 -5.1 -8.6 76 25 10   100.54   -9 LegendNANA
15:00 -5.3 -9.2 74 23 22   100.53   -12 LegendNANA
16:00 -5.1 -9.9 69 24 28   100.52   -13 LegendNANA
17:00 -5.2 -9.6 71 24 27   100.51   -13 LegendNANA
18:00 -5.6 -9.8 72 26 29   100.58   -14 LegendNANA
19:00 -5.8 -10.2 71 27 21   100.62   -13 LegendNANA
20:00 -5.7 -9.3 76 27 24   100.62   -13 LegendNANA
21:00 -6.8 -9.8 79 34 4   100.65   -9 LegendNANA
22:00 -7.7 -9.9 84 8 7   100.66   -11 LegendNANA
23:00 -7.9 -10.0 85 14 3   100.67   -9 LegendNANA

Notes on Data Quality.

Legend

  • E = Estimated
  • M = Missing
  • NA = Not Available
  • ‡ = Partner data that is not subject to review by the National Climate Archives
Date modified: